This is the latest recevied weather packets stored in our database for station/object KC2YXU-1. If no packets are shown the sender has not sent any weather packets the latest 10 day(s).
| Time | Temp. | Humidity | Pressure | Rain* | Wind** | Luminosity | Snow |
|---|---|---|---|---|---|---|---|
| 1777332773 | 21.67° C | 35% | 1017.5 hPa | 0 mm | - | - | - |
| 1777332479 | 21.67° C | 35% | 1017.6 hPa | 0 mm | - | - | - |
| 1777312069 | 22.22° C | 40% | 1021.5 hPa | 0 mm | - | - | - |
| 1777311473 | 21.67° C | 36% | 1021.7 hPa | 0 mm | - | - | - |
| 1777311175 | 21.67° C | 36% | 1021.6 hPa | 0 mm | - | - | - |
| 1777310871 | 21.67° C | 36% | 1021.7 hPa | 0 mm | - | - | - |
| 1777310568 | 21.67° C | 39% | 1021.6 hPa | 0 mm | - | - | - |
| 1777310269 | 21.11° C | 38% | 1021.7 hPa | 0 mm | - | - | - |
| 1777309372 | 21.11° C | 37% | 1022 hPa | 0 mm | - | - | - |
| 1777309073 | 21.11° C | 38% | 1022 hPa | 0 mm | - | - | - |
| 1777308474 | 20.56° C | 39% | 1022.1 hPa | 0 mm | - | - | - |
| 1777307873 | 20.56° C | 42% | 1022.5 hPa | 0 mm | - | - | - |
| 1777307573 | 20.56° C | 40% | 1022.5 hPa | 0 mm | - | - | - |
| 1777307274 | 20.56° C | 37% | 1022.5 hPa | 0 mm | - | - | - |
| 1777306973 | 20° C | 40% | 1022.5 hPa | 0 mm | - | - | - |
| 1777306674 | 20° C | 40% | 1022.7 hPa | 0 mm | - | - | - |
| 1777306074 | 20.56° C | 39% | 1023 hPa | 0 mm | - | - | - |
| 1777305474 | 20° C | 42% | 1023.2 hPa | 0 mm | - | - | - |
| 1777304872 | 20° C | 42% | 1023.2 hPa | 0 mm | - | - | - |
| 1777304273 | 19.44° C | 42% | 1023.3 hPa | 0 mm | - | - | - |
| 1777303974 | 19.44° C | 41% | 1023.4 hPa | 0 mm | - | - | - |
| 1777303673 | 19.44° C | 43% | 1023.4 hPa | 0 mm | - | - | - |
| 1777303372 | 19.44° C | 44% | 1023.4 hPa | 0 mm | - | - | - |
| 1777303074 | 18.89° C | 42% | 1023.5 hPa | 0 mm | - | - | - |
| 1777302772 | 18.89° C | 46% | 1023.6 hPa | 0 mm | - | - | - |
* Rain latest hour (hover to see other rain measurements)
** Current wind speed in m/s (hover to see current wind gust speed)